Regional Weather Roundup
Issued by NWS

Home | Current Version | Previous Version | Text Only | Print | Product List | Glossary Off
Versions: 1 2 3 4 5 6 7 8 9 10 11 12 13 14 15 16 17 18 19 20 21 22 23 24 25 26 27 28 29 30 31 32 33 34 35 36 37 38 39 40 41 42 43 44 45 46 47 48 49 50

000
ASUS43 KLOT 290810
RWRIL

ILLINOIS REGIONAL WEATHER ROUNDUP
NATIONAL WEATHER SERVICE CHICAGO/ROMEOVILLE IL
300 AM CDT FRI AUG 29 2014

NOTE: "FAIR" INDICATES FEW OR NO CLOUDS BELOW 12,000 FEET WITH NO
SIGNIFICANT WEATHER AND/OR OBSTRUCTIONS TO VISIBILITY.

* THESE STATIONS ARE NOT UNDER NWS QUALITY CONTROL. THEY ALSO MAY NOT
  REPORT WEATHER SUCH AS PRECIPITATION OR FOG.

ILZ001-002-007-009-015-016-024-290900-
NORTHWEST ILLINOIS

CITY           SKY/WX    TMP DP  RH WIND       PRES   REMARKS
MOLINE         MOCLDY    71  67  87 SE3       29.93F
STERLING*      PTCLDY    64  63  94 SE3       29.95F
SAVANNA*       PTCLDY    67  64  93 SE3       29.94F FOG
$$

ILZ003-004-008-010-011-017-018-290900-
NORTH CENTRAL ILLINOIS

CITY           SKY/WX    TMP DP  RH WIND       PRES   REMARKS
ROCKFORD       MOCLDY    67  65  93 S7        29.97F FOG
FREEPORT*      CLEAR     64  63  96 SE3       29.98S FOG
ROCHELLE*      MOCLDY    67  65  95 CALM      29.96F FOG
DE KALB*       CLOUDY    66  65  94 SE9       29.98F FOG
PERU*          CLOUDY    70  68  95 CALM      29.97S
$$

ILZ005-006-012>014-019>023-290900-
NORTHEAST ILLINOIS

CITY           SKY/WX    TMP DP  RH WIND       PRES   REMARKS
CHICAGO-OHARE  CLOUDY    71  63  75 S8        29.97F
CHICAGO-MIDWAY CLOUDY    73  66  78 S9        29.98S
AURORA         CLOUDY    69  66  90 SE5       29.98S FOG
LANSING*       CLOUDY    70  64  81 SE7       29.99S
JOLIET*        CLOUDY    69  66  89 CALM      29.99S
WAUKEGAN       MOCLDY    70  67  90 SE6       29.97F
DUPAGE AIRPORT CLOUDY    69  66  90 S5        29.98S
KANKAKEE*      CLOUDY    70  67  90 SE9       29.99F
WHEELING       CLOUDY    72  66  81 S7        29.98F
MORRIS*        CLOUDY    69  69 100 CALM      29.97S FOG
ROMEOVILLE*    CLOUDY    69  67  94 S6        29.98F
NORTHERLY ISL    N/A     72  64  76 S10         N/A
$$

LMZ740>746-290900-
SOUTHERN LAKE MICHIGAN

STATION/POSITION SKY/WX   TEMP    WIND        PRES    VSBY  WAVE
                          AIR SEA DIR/SP/G                  HT/PER
                          (F)     (DEG/KT/KT) (MB)    (MI)  (FT/S)
SOUTHERN BUOY              69 69  120/ 10/ 12 1015.8F         2/ 5
WAUKEGAN HARBOR            72     170/  8/  8   N/A
HARRISON CRIB              72     170/ 20/ 22   N/A
BURNHAM HARBOR             72     160/ 11/ 12   N/A
CALUMET HARBOR             71     160/  9/ 12 1014.1S
MICHIGAN CITY              71     130/ 15/ 20   N/A
MICHIGAN CITY 6N           71 72  150/ 16/ 21   N/A           2/ 2
ST. JOSEPH                 70 70  140/ 14/ 17   N/A           1/ 2
$$

ILZ025>027-034>036-040-047-049-050-058-095>099-290900-
WEST-CENTRAL ILLINOIS

CITY           SKY/WX    TMP DP  RH WIND       PRES   REMARKS
QUINCY         PTCLDY    72  69  90 SE8       29.94S
GALESBURG*     MOCLDY    69  67  95 SE5       29.94F
MACOMB*        PTCLDY    68  68  98 SE6       29.97S
JACKSONVILLE*  PTCLDY    72  70  94 SE8       29.96F
PITTSFIELD*    MOCLDY    72  69  89 SE6       29.96S
$$

ILZ028>032-037-038-041>044-048-051>054-059>061-290900-
CENTRAL ILLINOIS

CITY           SKY/WX    TMP DP  RH WIND       PRES   REMARKS
PONTIAC        CLOUDY    70  70 100 SE3       29.97F FOG
DECATUR        MOCLDY    71  69  93 E5        29.98F
PEORIA         MOCLDY    72  68  87 S5        29.96F
LACON*         CLOUDY    69  68  94 CALM      29.95S
LINCOLN*       MOCLDY    71  69  93 CALM      29.94S
SPRINGFIELD    MOCLDY    71  69  93 SE6       29.96F
TAYLORVILLE    MOCLDY    70  68  94 SE3       29.98S
$$

ILZ033-039-045-046-055>057-062-063-290900-
EAST-CENTRAL ILLINOIS

CITY           SKY/WX    TMP DP  RH WIND       PRES   REMARKS
CHAMPAIGN      CLOUDY    71  69  93 E5        30.00F
DANVILLE*      CLOUDY    69  68  95 CALM      29.98F
RANTOUL*       CLOUDY    72  68  87 SE3       30.00S
MATTOON        MOCLDY    70  69  97 E3        29.99F
PARIS*         CLOUDY    70  69  96 CALM      30.02R
$$

ILZ079-100>102-290900-
SOUTHWEST ILLINOIS

CITY           SKY/WX    TMP DP  RH WIND       PRES   REMARKS
BELLEVILLE     MOCLDY    73  73 100 E1        29.96F
CAHOKIA*       PTCLDY    73  71  93 S3        29.96
SPARTA*        PTCLDY    71  70  97 CALM      29.98F FOG
$$

ILZ064>066-069>071-074>076-080>082-084>086-088>090-092>094-290900-
SOUTH-CENTRAL ILLINOIS

CITY           SKY/WX    TMP DP  RH WIND       PRES   REMARKS
CARBONDALE     CLEAR     71  69  93 SE5       29.97F
CAIRO*         CLEAR     72  70  91 CALM      29.96F FOG
EFFINGHAM*     MOCLDY    72  69  88 CALM      29.99S
MARION         PTCLDY    73  72  94 SE3       29.98F FOG
MT. VERNON     CLOUDY    73  68  83 CALM      29.99S
CENTRALIA*     CLOUDY    72  69  91 CALM      29.98F FOG
SALEM*         CLOUDY    75  74  95 CALM      29.98F FOG
METROPOLIS*      N/A     71  71 100 CALM      29.97S FOG
$$

ILZ067-068-072-073-078-083-087-091-290900-
SOUTHEAST ILLINOIS

CITY           SKY/WX    TMP DP  RH WIND       PRES   REMARKS
LAWRENCEVILLE  MOCLDY    74  72  93 CALM      29.99F FOG
FLORA*         MOCLDY    73  72  96 CALM      29.99S FOG
FAIRFIELD*     CLOUDY    73  73 100 CALM      29.98F
HARRISBURG*    FOG       71  71 100 CALM      29.99S VSB 1/4
ROBINSON*      MOCLDY    73  73  98 SE3       30.00F FOG
CARMI*         PTCLDY    72  72  99 CALM      29.98S FOG
$$

ABBREVIATIONS USED IN REMARKS
   TC - TEMPERATURE IN CELSIUS
  WCI - WIND CHILL INDEX
   HX - HEAT INDEX
  VSB - VISIBILITY
$$




USA.gov is the U.S. government's official web portal to all federal, state and local government web resources and services.